TimeEDT,TemperatureF,Dew PointF,Humidity,Sea Level PressureIn,VisibilityMPH,Wind Direction,Wind SpeedMPH,Gust SpeedMPH,PrecipitationIn,Events,Conditions,WindDirDegrees,DateUTC
12:53 AM,73.0,62.1,68,29.62,10.0,NNW,18.4,27.6,N/A,,Mostly Cloudy,340,2012-10-27 04:53:00
1:53 AM,72.0,62.1,71,29.60,10.0,NNW,9.2,23.0,N/A,,Overcast,330,2012-10-27 05:53:00
2:53 AM,71.1,61.0,70,29.57,10.0,NW,17.3,21.9,N/A,,Scattered Clouds,320,2012-10-27 06:53:00
3:53 AM,70.0,61.0,73,29.56,10.0,NW,15.0,25.3,N/A,,Scattered Clouds,320,2012-10-27 07:53:00
4:53 AM,70.0,60.1,71,29.55,10.0,NW,15.0,27.6,N/A,,Scattered Clouds,320,2012-10-27 08:53:00
5:53 AM,69.1,60.1,73,29.55,10.0,NW,15.0,24.2,N/A,,Partly Cloudy,310,2012-10-27 09:53:00
6:11 AM,69.8,60.8,73,29.55,10.0,NW,15.0,23.0,N/A,,Mostly Cloudy,310,2012-10-27 10:11:00
6:42 AM,68.0,59.0,73,29.55,10.0,NW,18.4,25.3,N/A,,Scattered Clouds,310,2012-10-27 10:42:00
6:53 AM,68.0,59.0,73,29.57,10.0,NW,19.6,27.6,N/A,,Scattered Clouds,310,2012-10-27 10:53:00
7:06 AM,68.0,59.0,73,29.56,10.0,NW,18.4,24.2,N/A,,Mostly Cloudy,310,2012-10-27 11:06:00
7:25 AM,68.0,59.0,73,29.56,10.0,NW,16.1,25.3,N/A,,Scattered Clouds,310,2012-10-27 11:25:00
7:53 AM,68.0,59.0,73,29.58,10.0,NW,16.1,27.6,N/A,,Clear,310,2012-10-27 11:53:00
8:53 AM,68.0,59.0,73,29.62,10.0,NW,17.3,28.8,N/A,,Scattered Clouds,320,2012-10-27 12:53:00
9:53 AM,69.1,60.1,73,29.62,10.0,NW,18.4,28.8,N/A,,Partly Cloudy,320,2012-10-27 13:53:00
10:08 AM,69.8,60.8,73,29.62,10.0,NW,15.0,26.5,N/A,,Mostly Cloudy,320,2012-10-27 14:08:00
10:31 AM,69.8,60.8,73,29.62,10.0,NNW,13.8,25.3,N/A,,Scattered Clouds,330,2012-10-27 14:31:00
10:53 AM,70.0,60.1,71,29.64,10.0,NW,13.8,28.8,N/A,,Partly Cloudy,320,2012-10-27 14:53:00
11:17 AM,69.8,60.8,73,29.63,10.0,NNW,11.5,24.2,N/A,,Mostly Cloudy,330,2012-10-27 15:17:00
11:53 AM,70.0,60.1,71,29.65,10.0,NW,20.7,29.9,N/A,,Overcast,320,2012-10-27 15:53:00
12:53 PM,71.1,60.1,68,29.64,10.0,NW,19.6,29.9,N/A,,Overcast,320,2012-10-27 16:53:00
1:53 PM,71.1,59.0,66,29.63,10.0,NW,16.1,24.2,N/A,,Overcast,320,2012-10-27 17:53:00
2:18 PM,71.6,59.0,64,29.62,10.0,NW,20.7,29.9,N/A,,Overcast,320,2012-10-27 18:18:00
2:53 PM,72.0,59.0,64,29.62,10.0,NW,19.6,25.3,N/A,,Mostly Cloudy,310,2012-10-27 18:53:00
3:53 PM,72.0,59.0,64,29.60,10.0,NW,19.6,26.5,N/A,,Partly Cloudy,320,2012-10-27 19:53:00
4:53 PM,72.0,59.0,64,29.59,10.0,NW,17.3,27.6,N/A,,Clear,310,2012-10-27 20:53:00
5:53 PM,72.0,59.0,64,29.62,10.0,NW,11.5,19.6,N/A,,Clear,320,2012-10-27 21:53:00
6:53 PM,72.0,60.1,66,29.63,10.0,WNW,11.5,19.6,N/A,,Clear,300,2012-10-27 22:53:00
7:53 PM,72.0,59.0,64,29.65,10.0,NW,13.8,19.6,N/A,,Clear,310,2012-10-27 23:53:00
8:53 PM,72.0,59.0,64,29.67,10.0,WNW,13.8,20.7,N/A,,Clear,300,2012-10-28 00:53:00
9:53 PM,71.1,59.0,66,29.68,10.0,WNW,13.8,24.2,N/A,,Clear,300,2012-10-28 01:53:00
10:53 PM,70.0,60.1,71,29.70,10.0,WNW,12.7,-,N/A,,Clear,290,2012-10-28 02:53:00